Location: Newark
(35.9031°N, 139.7175°E)
Time: 13:30:55
(UTC+00:00)

Transit 2A - Pass Details

Date: 29 May 2020
Orbit: 592 x 967 km, 66.7° (Epoch: 06 July)

Event Time Altitude Azimuth Distance (km) Brightness Sun altitude
Rises 13:29:09 0° 333° (NNW) 3,573 10.6 -30.1°
Reaches altitude 10° 13:31:39 10° 334° (NNW) 2,659 9.7 -30.2°
Enters shadow 13:37:40 81° 4° (N) 978 6.4 -30.6°
